SCP
0 1 1 1 1 0 0 0 0 0 -0 -0 0 0 0 0 0 0 0 0 0 0 0 0 0 0 0 0 0 0 0 0 0 -0 -0 -0 -0 -0 -0 -0 -0 -0 -0 -0 -0 -0 -0 -0 -0
0 1 1 1 1 0 0 0 0 0 0 0 0 0 0 0 0 0 0 0 0 0 0 0 0 0 0 0 0 0 0 0 0 -0 -0 -0 -0 -0 -0 -0 -0 -0 -0 -0 -0 -0 -0 -0 -0
0 1 1 1 0 0 0 0 0 0 0 0 0 0 0 0 0 0 0 0 0 0 0 0 0 0 0 0 0 0 0 0 0 0 0 -0 -0 -0 -0 -0 -0 -0 -0 -0 -0 -0 -0 -0 -0
1 1 1 0 0 0 0 0 0 0 0 0 0 0 0 0 0 0 0 0 0 0 0 0 0 0 0 0 0 0 0 0 0 0 0 0 0 0 -0 -0 0 0 -0 0 0 0 -0 -0 -0
0 0 0 0 0 0 0 0 0 0 0 0 0 0 0 0 0 0 0 0 0 0 0 0 0 0 0 0 0 0 0 0 0 0 0 0 0 0 0 0 0 0 0 0 0 0 0 -0 -0
0 0 0 0 0 0 0 0 0 0 0 0 0 0 0 0 0 0 0 0 0 0 0 0 0 0 0 0 0 0 0 0 0 0 0 0 0 0 0 0 0 0 0 0 0 0 0 0 -0
0 0 0 0 0 0 0 0 0 0 0 0 0 0 0 0 0 0 0 0 0 0 0 0 0 0 0 0 0 0 0 0 0 0 0 0 -0 -0 0 0 0 0 0 0 0 0 0 0 0
0 0 0 0 0 0 0 0 0 0 0 0 0 0 0 0 0 0 0 0 0 0 0 0 0 0 0 0 0 0 0 0 0 0 0 -0 -0 -0 0 0 0 0 0 0 0 0 0 0 0
0 0 0 0 0 0 0 0 0 0 0 0 0 1 1 1 0 0 0 0 0 0 0 0 0 0 0 0 0 0 0 0 0 0 -0 -0 -0 -0 0 0 0 0 0 -0 -0 -0 0 0 0
0 0 0 0 0 0 0 0 0 0 0 0 1 1 1 1 1 1 0 1 1 0 0 0 0 0 0 0 0 0 0 0 0 0 -0 -0 -0 -0 0 0 0 0 0 -0 -0 -0 0 0 0
0 0 0 0 0 0 0 0 0 0 0 0 1 1 1 1 1 1 1 1 1 1 0 0 0 0 0 0 0 0 0 0 0 0 0 -0 -0 -0 0 0 0 -0 -0 -0 -0 -0 -0 -0 -0
0 0 0 0 0 0 0 0 0 0 0 0 1 1 1 1 1 1 1 1 1 1 1 1 1 1 1 0 0 0 0 0 0 0 0 0 0 0 0 -0 -0 -0 -0 -0 -0 -0 -0 -0 -0
0 0 0 0 0 0 0 0 0 0 0 0 1 1 1 1 1 1 1 1 1 1 1 1 1 1 1 1 0 0 0 0 0 0 0 0 0 0 0 0 -0 -0 -0 -0 -0 -0 -0 -0 -0
0 0 0 0 0 0 0 0 0 0 0 0 1 1 1 1 1 1 1 2 2 1 1 1 1 1 1 1 0 0 0 0 0 0 0 0 0 0 0 0 0 0 -0 -0 -0 -0 -0 -0 -0
0 0 0 0 0 0 0 0 0 0 0 0 1 1 1 1 1 2 2 2 2 2 1 1 1 1 1 1 0 0 0 0 0 0 0 0 0 0 0 0 0 0 0 0 -0 -0 -0 -0 -0
0 0 0 0 0 0 0 0 0 0 0 0 1 1 1 1 2 2 2 2 2 2 2 1 1 1 1 1 1 0 0 0 0 0 0 0 0 0 0 0 0 0 0 0 0 -0 -0 -0 -0
0 0 0 0 0 0 0 0 0 0 0 0 1 1 1 2 2 2 2 2 2 2 2 1 1 1 1 1 1 0 0 0 0 0 0 0 0 0 0 0 0 0 0 0 0 0 0 0 0
0 0 0 0 0 0 0 0 0 0 0 0 1 1 2 2 2 2 2 2 2 2 2 2 1 1 1 1 1 0 0 0 0 0 0 0 0 0 0 0 0 0 0 0 0 0 0 0 0
0 0 0 0 0 0 0 0 0 0 0 0 1 1 2 2 2 2 2 2 2 2 2 2 1 1 1 1 1 1 0 0 0 0 0 0 0 0 0 0 0 0 0 0 0 0 0 0 0
0 0 0 0 0 0 0 0 0 0 0 0 1 1 2 2 2 2 2 2 2 2 2 2 1 1 1 1 1 1 0 0 0 0 0 0 0 0 0 0 0 0 0 0 0 0 0 0 0
0 0 0 0 0 0 0 0 0 0 0 0 1 1 1 2 2 2 2 2 2 2 2 1 1 1 1 1 1 1 0 0 0 0 0 0 0 0 0 0 0 0 0 0 0 0 0 0 0
0 0 0 0 0 0 0 0 0 0 0 0 0 1 1 2 2 2 2 2 2 2 2 2 2 1 1 1 1 1 0 0 0 0 0 0 0 0 0 0 0 0 0 0 0 0 0 0 0
0 0 0 0 0 0 0 0 0 0 0 0 0 1 1 2 2 2 2 2 2 2 2 2 2 1 1 1 1 1 1 0 0 0 0 0 0 0 0 0 0 0 0 0 0 0 0 0 0
0 0 0 0 0 0 0 0 0 0 0 0 0 1 1 1 2 2 2 2 2 2 2 2 2 1 1 1 1 1 1 0 0 0 0 0 0 0 0 0 0 0 0 0 0 0 0 0 0
0 -0 0 0 0 0 0 0 0 0 0 0 0 1 1 1 1 2 2 2 2 2 2 2 2 1 1 1 1 1 1 1 0 0 0 0 0 0 0 0 0 0 0 0 0 0 0 0 0
0 -0 -0 0 0 0 0 0 0 0 0 0 0 1 1 1 1 1 2 2 2 1 2 2 2 1 1 1 1 1 1 1 1 1 0 0 0 0 0 0 0 0 0 0 0 0 0 0 0
0 0 0 0 0 0 0 0 0 0 0 0 0 1 1 1 1 1 1 1 1 1 1 2 2 1 1 1 1 1 1 1 1 1 1 1 0 0 0 0 0 0 0 0 0 0 0 0 0
0 0 0 0 0 0 0 0 0 0 0 0 0 1 1 1 1 1 1 1 1 1 1 1 1 1 1 1 1 1 1 1 1 1 1 1 0 0 0 0 0 0 0 0 0 0 0 0 0
0 0 0 0 0 0 0 0 0 0 0 0 0 1 1 1 1 1 1 1 1 1 1 1 1 1 1 1 1 1 1 1 1 1 0 0 0 0 0 0 0 0 0 0 0 0 0 0 0
0 0 0 0 0 0 0 0 0 0 0 0 0 1 1 1 1 1 1 1 1 1 1 1 1 1 1 1 1 1 1 1 1 0 0 0 0 0 0 0 0 0 0 0 0 0 0 0 0
Wind_Speed
10 12 10 7 3 5 16 17 16 15 15 14 14 15 17 16 13 13 15 21 21 18 15 14 13 13 13 12 12 12 12 12 12 11 11 11 11 11 11 11 11 11 11 12 11 11 11 11 10
11 12 8 4 2 10 13 14 15 14 12 13 15 16 18 17 17 17 16 19 21 19 15 14 14 13 13 12 12 12 12 12 11 11 10 10 11 10 10 10 10 11 11 11 11 11 11 10 10
13 14 6 1 8 12 13 13 12 12 12 14 16 16 14 13 15 15 16 19 20 18 16 15 15 13 13 12 11 11 11 11 11 10 10 10 10 10 10 10 10 10 11 11 11 10 10 10 9
10 6 3 3 13 14 12 11 11 12 12 13 14 13 13 11 14 17 17 19 20 19 17 15 15 13 13 12 12 11 11 11 10 10 10 10 10 10 9 10 10 10 10 10 10 10 9 9 8
8 4 1 7 13 13 12 11 11 12 13 15 17 16 14 13 18 17 16 17 18 19 17 16 15 14 12 11 11 11 11 11 10 10 10 9 9 9 10 10 10 10 10 10 10 9 9 7 6
4 2 1 7 12 11 11 10 11 12 12 13 16 16 12 14 15 15 15 15 18 19 17 15 15 14 12 11 11 11 11 10 10 10 9 9 9 9 9 10 10 10 10 10 9 9 8 7 5
6 2 2 8 10 11 10 10 11 10 10 11 15 14 12 14 13 13 13 13 17 19 17 15 14 13 12 12 11 11 10 10 10 10 9 9 9 10 10 10 10 10 10 9 9 9 8 6 4
3 2 2 7 9 10 10 10 11 11 9 8 10 12 14 15 13 13 12 12 14 15 16 15 14 13 12 11 11 11 10 10 10 9 9 9 9 10 10 9 9 9 9 9 9 8 7 6 4
5 1 4 8 7 8 8 10 10 10 7 8 10 14 18 18 16 13 12 12 11 11 11 13 14 13 12 12 12 11 10 10 9 8 9 8 6 8 7 10 10 9 9 9 8 8 7 5 4
2 2 7 6 6 6 7 8 8 8 7 9 14 18 20 17 15 14 13 13 12 11 10 9 10 10 11 10 9 7 8 8 6 6 7 4 3 4 8 9 10 9 9 9 8 8 7 5 3
3 4 4 5 7 5 4 6 7 9 6 10 16 19 18 17 14 13 12 12 12 10 9 10 9 7 8 6 7 5 4 5 5 6 5 4 4 4 6 4 6 6 8 5 6 6 5 3 2
4 4 3 3 4 3 3 4 7 8 8 12 17 19 17 16 14 13 12 12 11 9 7 6 8 5 6 5 4 4 4 4 4 5 5 4 2 3 4 3 3 4 3 3 3 3 3 3 2
4 3 3 2 2 3 3 3 6 9 11 15 17 17 16 15 13 12 11 10 11 10 8 6 6 5 5 4 2 4 4 4 4 4 3 4 4 3 3 2 2 3 3 3 2 1 2 2 2
7 6 5 3 1 2 3 5 2 9 11 14 15 15 15 14 14 12 11 10 11 10 8 8 6 6 5 3 1 2 3 3 4 4 4 4 3 3 3 3 2 2 2 2 2 2 2 1 1
7 9 8 4 1 4 3 2 1 7 10 13 13 13 13 13 13 12 12 11 11 10 8 8 7 7 5 4 3 2 2 4 3 3 4 3 3 4 3 3 2 2 2 2 1 2 2 2 2
10 9 8 4 2 3 3 3 4 7 9 11 11 11 11 10 12 11 11 10 10 10 9 8 8 9 7 4 3 2 2 3 2 3 4 4 3 4 2 3 3 3 2 2 2 2 2 2 2
11 9 8 6 4 2 3 5 6 7 8 9 10 12 12 10 10 11 12 11 10 10 9 8 7 9 8 6 4 2 1 2 2 2 3 4 4 4 3 2 2 3 2 2 3 2 1 2 2
8 6 5 3 4 3 4 2 5 6 8 9 10 11 12 12 11 11 11 11 10 9 9 9 7 8 7 5 3 2 2 2 2 2 3 4 4 4 3 2 3 3 2 1 1 1 1 1 2
10 9 6 2 1 3 5 2 2 4 6 8 10 10 12 11 12 12 12 12 11 10 9 9 8 8 6 5 5 4 3 3 3 3 5 5 4 3 2 2 2 2 2 2 2 2 2 2 2
9 9 8 4 1 3 6 3 3 3 3 6 9 11 13 12 12 12 11 11 11 11 10 9 8 8 7 5 4 3 3 3 4 3 4 5 4 4 5 4 3 3 2 2 2 2 1 2 2
10 9 8 7 5 7 8 5 3 5 4 5 7 10 12 14 14 13 12 11 11 11 11 9 9 9 9 7 5 4 2 2 2 3 3 4 4 4 3 4 3 2 3 3 3 3 4 3 2
10 9 7 9 9 8 8 5 4 5 5 5 4 7 10 10 13 13 12 11 11 10 10 8 8 8 8 7 6 6 5 4 4 3 4 4 5 5 4 4 4 3 3 3 4 4 3 4 3
11 8 7 10 11 11 10 6 3 8 6 6 5 7 10 11 12 13 12 11 10 10 9 8 8 7 7 7 6 6 5 4 3 3 4 4 4 4 5 4 4 4 3 3 4 3 3 3 3
9 8 9 11 11 11 10 8 2 5 5 6 7 7 9 11 12 12 11 10 8 9 8 9 8 7 7 7 6 6 6 4 4 4 3 3 3 3 5 4 4 4 4 4 4 3 4 3 3
10 9 8 8 6 5 8 8 2 6 6 6 7 9 10 11 11 11 11 10 9 9 8 9 9 8 7 7 6 6 5 5 5 4 4 4 3 3 4 4 3 3 3 3 3 3 4 4 4
12 13 10 9 4 5 8 7 3 9 8 6 8 10 10 11 11 12 11 10 9 9 8 8 9 7 7 7 6 5 4 3 3 3 3 3 3 3 3 3 3 4 4 4 3 3 4 3 4
14 13 15 14 15 9 5 3 5 7 8 8 9 10 10 10 11 12 12 11 10 9 8 8 8 7 7 7 6 5 4 3 3 2 3 2 2 2 3 3 3 3 3 3 3 3 2 2 3
16 13 9 10 9 10 6 3 1 4 6 8 9 10 10 10 11 12 11 11 10 9 8 8 8 6 6 6 5 5 5 4 3 2 2 1 1 1 1 2 2 2 2 2 2 2 2 2 2
14 14 11 8 9 10 6 1 3 5 5 7 10 10 10 10 10 10 10 10 10 10 9 8 7 6 5 5 4 3 4 3 3 2 2 2 2 2 1 1 1 2 2 2 2 2 2 2 2
14 15 13 9 8 9 9 1 6 6 6 7 9 10 10 10 11 11 11 10 9 10 10 9 8 7 5 5 5 4 3 3 3 2 2 1 1 1 1 1 1 1 1 2 2 2 1 1 2
Wind_Direction
264 254 241 257 249 74 65 63 64 66 65 60 56 62 62 59 71 90 111 114 115 117 119 115 110 109 107 107 107 106 107 107 105 103 102 100 98 97 97 99 100 100 100 99 98 98 100 100 101
279 270 251 255 56 74 70 69 69 70 74 74 69 73 75 74 86 101 112 118 120 123 123 115 114 111 110 109 107 106 107 107 106 106 105 103 100 100 101 102 103 104 104 104 103 101 102 103 104
269 261 261 216 69 74 77 77 78 82 79 80 76 67 70 88 99 110 123 125 119 115 112 115 117 114 112 112 111 110 110 110 109 108 107 105 103 103 103 105 106 107 107 107 105 102 103 104 107
269 259 243 76 77 77 78 85 88 84 80 81 85 81 77 88 107 120 132 125 119 119 118 119 120 117 114 114 114 113 113 111 111 110 109 108 106 106 106 107 107 107 108 108 108 106 105 107 109
259 279 57 82 80 79 78 80 84 82 81 83 89 92 91 95 112 128 134 127 125 121 120 124 124 121 119 117 116 115 114 112 113 113 113 111 109 109 109 107 107 109 110 111 109 108 108 110 114
284 287 66 91 90 84 80 77 78 79 85 97 104 103 103 115 125 137 133 132 125 122 122 126 128 128 127 124 121 119 118 117 117 117 115 113 113 113 113 112 111 112 114 114 113 114 116 116 119
266 303 84 89 92 90 85 84 82 83 84 91 103 108 124 131 135 137 132 130 125 125 130 138 139 136 134 130 128 126 124 123 122 122 121 121 120 119 118 117 116 117 118 119 122 123 123 123 123
298 329 57 87 81 83 80 78 80 82 76 89 114 123 137 137 143 136 132 126 124 130 137 144 147 145 147 140 138 136 133 133 132 132 134 134 131 130 130 127 121 123 124 125 127 129 131 134 141
286 298 55 74 77 82 87 86 81 78 70 71 77 111 131 142 144 141 137 132 130 133 140 147 144 155 154 146 144 147 145 145 146 148 152 155 158 147 143 123 128 130 132 134 136 141 146 154 172
298 27 52 62 77 72 79 94 108 105 105 99 98 109 129 144 149 152 150 146 145 143 140 137 143 154 148 140 144 158 162 157 175 158 164 176 151 131 122 131 138 140 143 147 154 160 168 185 180
333 48 46 54 67 60 67 92 105 104 115 124 127 134 143 150 157 158 157 155 149 149 142 147 144 137 128 130 154 158 153 154 169 155 155 149 137 136 129 141 147 156 164 168 160 180 201 193 176
317 17 22 41 59 58 58 81 86 97 105 123 134 143 150 158 163 162 161 157 148 148 138 137 126 121 113 124 134 137 140 155 149 154 167 146 142 141 137 152 164 169 171 159 177 195 185 156 163
294 320 321 5 52 45 13 48 87 97 104 119 133 142 153 161 164 161 155 152 146 146 144 129 116 108 102 99 122 136 131 146 143 153 159 148 152 148 140 145 167 177 152 159 179 156 123 134 164
315 311 298 296 338 66 24 344 72 113 118 128 139 149 161 164 163 158 156 154 149 149 148 132 133 128 126 127 127 127 141 136 141 155 160 170 151 140 142 160 173 165 156 156 156 146 141 158 136
285 279 271 242 236 119 97 294 209 133 134 138 147 155 160 162 163 161 160 160 155 152 149 144 151 144 150 162 180 153 148 156 152 138 146 174 151 146 156 160 178 162 138 131 151 155 162 175 170
252 256 263 240 188 153 162 193 192 161 149 145 152 153 156 159 162 159 155 156 154 154 153 162 168 155 162 176 177 177 163 148 144 142 152 177 152 163 185 172 171 163 165 168 167 196 191 164 176
243 233 233 210 165 231 229 173 178 171 152 150 158 158 159 165 163 156 155 154 152 154 158 167 169 160 167 177 172 198 149 138 150 155 158 170 172 180 200 191 151 180 181 181 194 164 193 173 194
274 255 233 203 156 229 254 190 171 165 162 161 166 164 163 170 168 158 154 153 150 155 161 166 173 165 168 168 164 196 172 169 181 176 166 171 183 190 199 194 178 200 175 169 158 144 186 199 222
298 312 305 290 75 299 286 270 223 189 178 165 167 164 167 168 163 155 157 158 159 160 165 169 180 170 168 169 175 188 187 190 200 191 176 178 189 197 204 225 178 203 176 178 189 185 200 228 233
281 286 286 277 175 277 288 302 292 255 226 180 172 167 165 163 159 157 160 163 165 166 169 174 181 176 178 178 182 187 183 194 201 195 167 179 186 192 204 209 202 200 182 200 215 200 218 240 228
264 269 286 300 294 263 260 263 212 242 226 192 179 172 166 167 164 163 165 169 171 173 176 180 181 177 182 178 179 186 176 206 204 185 179 193 194 203 208 191 206 204 203 201 212 216 213 231 242
259 264 279 287 286 285 279 271 201 191 222 187 182 164 158 163 160 163 167 171 176 175 175 173 175 174 176 180 190 191 190 199 208 193 183 193 202 202 206 202 203 218 225 200 217 217 218 225 238
265 295 288 280 278 279 277 273 189 171 191 167 166 173 157 155 160 161 163 166 169 169 167 170 170 172 173 185 194 200 202 198 199 191 182 192 198 204 210 208 200 210 223 219 226 224 224 225 234
264 274 271 265 268 265 275 275 201 160 145 146 161 153 142 149 151 151 153 154 160 162 162 165 167 170 174 184 196 202 206 200 192 194 190 198 199 208 213 214 205 207 213 221 223 218 220 226 244
233 246 254 245 248 288 303 276 164 124 119 127 139 132 134 140 144 147 150 154 158 161 164 164 164 171 178 185 196 202 210 207 202 203 199 201 202 204 203 211 202 211 213 217 218 216 223 216 225
220 236 251 268 247 222 232 255 135 119 112 116 128 129 137 145 148 151 153 154 160 165 162 159 163 170 178 184 190 194 202 206 206 205 205 205 208 208 187 202 203 210 217 220 210 221 220 213 223
241 232 253 269 279 274 231 222 134 133 136 144 138 136 143 144 150 151 151 154 159 161 159 160 158 168 178 182 180 185 192 198 200 191 200 216 216 197 182 196 207 206 208 218 208 212 222 208 213
247 251 251 262 280 286 269 282 305 152 159 154 147 147 148 150 152 151 153 155 155 155 152 152 154 165 171 174 180 177 180 185 182 191 192 178 210 226 190 203 205 204 199 210 206 205 200 203 213
222 244 260 277 273 278 286 277 157 174 189 161 151 150 150 149 147 147 147 147 149 146 147 149 149 155 160 164 163 160 158 161 156 161 179 177 190 213 205 197 196 199 200 208 201 204 196 207 218
234 227 234 245 264 275 282 259 155 170 170 149 144 141 143 146 149 148 146 146 148 147 148 150 154 155 153 147 146 148 146 143 145 156 165 170 183 193 198 196 189 212 207 203 198 212 211 210 217